Monroe, LA

4:51 PM CDT on August 24, 2016 (GMT -0500)
Monroe Regional

Weather History for KMLU - July, 2013

Change the Weather History Date:

Sunday, July 14, 2013

  Actual Average Record
Temperature  
Mean Temperature 78 °F 83 °F  
Max Temperature 91 °F 94 °F 103 °F (1980)
Min Temperature 64 °F 72 °F 61 °F (1967)
Degree Days  
Heating Degree Days 0 0  
Month to date heating degree days 0 0  
Since 1 June heating degree days 0 0  
Since 1 July heating degree days 0 0  
Cooling Degree Days 13 18  
Month to date cooling degree days 210 252  
Year to date cooling degree days 1004 1153  
Since 1 June cooling degree days 654 718  
Growing Degree Days 28 (Base 50)    
Moisture  
Dew Point 67 °F    
Average Humidity 67    
Maximum Humidity 93    
Minimum Humidity 41    
Precipitation  
Precipitation T in 0.11 in 4.22 in (1955)
Month to date precipitation T 1.87  
Year to date precipitation 30.46 30.60  
Snow  
Snow 0.00 in - - ()
Month to date snowfall 0.0  
Since 1 June snowfall 0.0  
Since 1 July snowfall 0.0  
Snow Depth 0.00 in    
Sea Level Pressure  
Sea Level Pressure 29.97 in    
Wind  
Wind Speed 2 mph (East)    
Max Wind Speed 22 mph    
Max Gust Speed 30 mph    
Visibility 10 miles    
Events      
T = Trace of Precipitation, MM = Missing Value Source: NWS Daily Summary

Daily Weather History Graph

Daily Weather History Graph

Search for Another Location

Airport or City:

Trip Planner

Search our weather history database for the weather conditions in past years. The results will help you decide how hot, cold, wet, or windy it might be!

Date:

Astronomy

Jul. 14, 2013 Rise Set
Actual Time 6:11 AM CDT 8:16 PM CDT
Civil Twilight 5:43 AM CDT 8:44 PM CDT
Nautical Twilight 5:09 AM CDT 9:18 PM CDT
Astronomical Twilight 4:32 AM CDT 9:54 PM CDT
Moon 12:04 PM CDT (7/14) 11:54 PM CDT (7/14)
Length of Visible Light 15h 01m
Length of Day
14h 05m
Waxing Crescent, 35% of the Moon is Illuminated
Jul 14
Waxing Crescent
Jul 15
First Quarter
Jul 22
Full
Jul 29
Last Quarter
Aug 6
New

Hourly Weather History & Observations

Time (CDT) Temp. Heat Index Dew Point Humidity Pressure Visibility Wind Dir Wind Speed Gust Speed Precip Events Conditions
12:53 AM 71.1 °F - 63.0 °F 75% 29.96 in 10.0 mi NE 3.5 mph - N/A   Clear
1:53 AM 69.1 °F - 63.0 °F 81% 29.95 in 10.0 mi East 3.5 mph - N/A   Clear
2:53 AM 64.9 °F - 63.0 °F 93% 29.93 in 10.0 mi Calm Calm - N/A   Clear
3:53 AM 66.0 °F - 63.0 °F 90% 29.93 in 10.0 mi Calm Calm - N/A   Clear
4:53 AM 64.9 °F - 63.0 °F 93% 29.94 in 10.0 mi Calm Calm - N/A   Clear
5:53 AM 66.9 °F - 63.0 °F 87% 29.96 in 10.0 mi Calm Calm - N/A   Clear
6:53 AM 68.0 °F - 64.0 °F 87% 29.96 in 8.0 mi East 3.5 mph - N/A   Clear
7:53 AM 71.1 °F - 66.0 °F 84% 29.96 in 8.0 mi East 3.5 mph - N/A   Clear
8:53 AM 73.9 °F - 66.0 °F 76% 29.99 in 10.0 mi Calm Calm - N/A   Clear
9:53 AM 75.9 °F - 66.9 °F 74% 29.99 in 10.0 mi Calm Calm - N/A   Clear
10:53 AM 80.1 °F 82.9 °F 69.1 °F 69% 30.01 in 10.0 mi Calm Calm - N/A   Clear
11:53 AM 82.0 °F 85.9 °F 70.0 °F 67% 30.01 in 10.0 mi Calm Calm - N/A   Clear
12:53 PM 84.0 °F 87.8 °F 69.1 °F 61% 30.01 in 10.0 mi Calm Calm - N/A   Clear
1:53 PM 86.0 °F 90.7 °F 70.0 °F 59% 29.98 in 10.0 mi Variable 4.6 mph - N/A   Clear
2:53 PM 89.1 °F 92.9 °F 68.0 °F 50% 29.96 in 10.0 mi Calm Calm - N/A   Clear
3:53 PM 91.0 °F 93.0 °F 64.9 °F 42% 29.95 in 10.0 mi Calm Calm - N/A   Clear
4:53 PM 89.1 °F 91.3 °F 66.0 °F 46% 29.93 in 10.0 mi Calm Calm - N/A   Partly Cloudy
5:53 PM 84.9 °F 90.1 °F 71.1 °F 63% 29.96 in 10.0 mi Variable 4.6 mph - N/A   Mostly Cloudy
6:53 PM 77.0 °F - 66.0 °F 69% 29.99 in 10.0 mi SE 11.5 mph 21.9 mph N/A   Mostly Cloudy
7:53 PM 72.0 °F - 69.1 °F 91% 29.98 in 10.0 mi East 3.5 mph - 0.00 in   Partly Cloudy
8:53 PM 72.0 °F - 69.1 °F 91% 29.99 in 10.0 mi Calm Calm - N/A   Clear
9:53 PM 71.1 °F - 69.1 °F 93% 30.01 in 10.0 mi East 3.5 mph - N/A   Clear
10:53 PM 71.1 °F - 68.0 °F 90% 30.01 in 10.0 mi ESE 4.6 mph - N/A   Clear
11:53 PM 71.1 °F - 68.0 °F 90% 30.02 in 10.0 mi Calm Calm - N/A   Clear